[Date Prev][Date Next][Thread Prev][Thread Next] - [Date Index][Thread Index][Author Index]

2 Line ISS Keps 5-23



ISS
1 25544U 98067A   04144.37218752  .00016505  00000-0  14861-3 0  8379
2 25544  51.6328  92.1867 0006234 141.6251 308.0548 15.68337496314429


----
Via the sarex mailing list at AMSAT.ORG courtesy of AMSAT-NA.
To unsubscribe, send "unsubscribe sarex" to Majordomo@amsat.org



AMSAT Top AMSAT Home